User: anonymous   Login
Location: Dover
(39.1580°N, 75.5250°W)
Time: 17:53:32
(UTC-04:00)
Language:

Cosmos 1437 Rocket - Orbit

View from above orbital plane
View from above orbital plane
View from above satellite
View from above satellite

Ground track
Ground track

The orbit data is extracted from the following two-line orbital elements,

1 13771U 83003B   16126.42505639  .00000794  00000-0  47492-4 0  9993
2 13771  81.1419 113.0322 0040655 272.2036  87.4534 15.09248385812275
Epoch (UTC): 05 May 2016 10:12:04
Eccentricity: 0.0040655
inclination: 81.1419°
perigee height: 510 km
apogee height: 566 km
right ascension of ascending node: 113.0322°
argument of perigee: 272.2036°
revolutions per day: 15.09248385
mean anomaly at epoch: 87.4534°
orbit number at epoch: 81227

The dashed part of the orbit path shows where the satellite is in the earth's shadow,  

DLR